sat.trackr.live / text

‹ back to catalog

STARLINK-35610

NORAD 66428 · 2025-259G

PAYLOAD ACTIVE UNKNOWN

§ Identity

Operator
Country
US
Launch date
2025-11-11
Launch site
AFETR
Launch vehicle
Mass (kg)
RCS (m²)

Purposes: comms

External: N2YO · Heavens-Above · Gunter

§ Orbital elements

Epoch: 2026-09-20T06:55:27.411744Z

Period
94.27 min
Inclination
43.0022°
Eccentricity
0.0001727
Mean motion
15.27573294 rev/d
Perigee alt
481.9 km
Apogee alt
484.3 km
Semi-major
6,861.2 km
B*
7.3562e-5
RAAN
255.2725°
Arg perigee
284.9045°
Mean anomaly
75.1616°
Rev number
4,925

§ Raw data

STARLINK-356101 66428U 25259G   26263.28851171  .00001762  00000+0  73562-4 0  99932 66428  43.0022 255.2725 0001727 284.9045  75.1616 15.27573294 49257

JSON: /api/v1/satellites/66428 · /tle

For live sub-satellite position, see the globe view (requires WebGL).

§ Visibility from observer

Set your observer location to see the next 7 days of passes ≥ 10°. The values pass through the URL so the page stays shareable.

No JS? Fill the form by hand. The geolocation button needs JavaScript.